Weather in Kakino

Russia / Nizhny Novgorod Oblast'     55˚10′39″N   44˚52′24″E
temp.,
°C
wind,
m/s
gust,
m/s
humid.,
%
clouds,
%
prec.,
mm/h
press.,
hPa
HPBL,
m
15 january, fri
fri1500:00−11˚sse4894100 0.3 1009279
03:00−12˚sse369597 0.4 1010186
06:00−14˚s349675 0.1 101046
09:00−15˚ssw339680 0.1 101136
12:00−12˚s129598 0.0 101147
15:00−13˚nne119599 0.0 101120
18:00−12˚ene2396100 0.1 1011102
21:00−14˚ne4697100 0.1 1008135
16 january, sat
sat1600:00−13˚ne51095100 0.1 1005301
03:00−13˚nne6995100 4.3 1003344
06:00−13˚nne51095100 3.4 999453
09:00−12˚nne4895100 5.6 998401
12:00−12˚n3595100 1.4 997333
15:00−12˚nw3596100 1.6 998169
18:00−14˚w359699 0.2 999112
21:00−14˚w4795100 0.3 1001205
17 january, sun
sun1700:00−15˚w4895100 0.3 1002255
03:00−15˚w5994100 0.4 1004308
06:00−16˚w499599 0.1 1005317
09:00−17˚w3796100 0.2 1008194
12:00−18˚nw369599 0.0 1011334
15:00−20˚wnw339796 0.1 101348
18:00−24˚nw339988 0.0 101526
21:00−27˚wnw229872 0.0 101719
18 january, mon
mon1800:00−27˚nw229879 0.0 101819
03:00−28˚nw1110080 0.0 101919
06:00−28˚nnw129976 0.0 101919
09:00−28˚ssw119975 0.0 102119
12:00−24˚nw119519 0.0 102165
15:00−25˚nnw119611 0.0 102120
18:00−27˚se119956 0.0 102219
21:00−26˚nne119777 0.0 102220
19 january, tue
tue1900:00−25˚nne2296100 0.0 102220
03:00−24˚nne2295100 0.0 102220
06:00−24˚ne2294100 0.0 102226
09:00−23˚ne2393100 0.0 102354
12:00−21˚nne2392100 0.0 1022120
15:00−21˚nne2392100 0.0 102166
18:00−23˚nne3391100 0.0 102258
21:00−24˚nne239297 0.0 102227